Regional Weather Roundup
Issued by NWS

Home | Current Version | Previous Version | Graphics & Text | Print | Product List | Glossary On
Versions: 1 2 3 4 5 6 7 8 9 10 11 12 13 14 15 16 17 18 19 20 21 22 23 24 25 26 27 28 29 30 31 32 33 34 35 36 37 38 39 40 41 42 43 44 45 46 47 48 49 50
000
ASUS45 KABQ 200410
RWRNM
WEATHER ROUNDUP FOR NEW MEXICO
NATIONAL WEATHER SERVICE ALBUQUERQUE NM
1000 PM MDT SAT APR 19 2014

NOTE: "FAIR" MEANS FEW OR NO CLOUDS BELOW 12,000 FEET AGL WITH NO
       SIGNIFICANT WEATHER OR OBSTRUCTIONS TO VISION.

      THIS PRODUCT IS RELEASED AS TWO VERSIONS.  ONE VERSION NEAR
      THE TOP OF THE HOUR CONTAINING PRELIMINARY DATA FROM ALBUQUERQUE
      AND OTHER STATIONS.  A FINAL VERSION WITH ADDITIONAL DATA IS
      ISSUED ABOUT 10 MINUTES AFTER THE HOUR.

NMZ501-503-504-510>518-200500-
NORTHWEST PLATEAU/NORTHCENTRAL MOUNTAINS

CITY           SKY/WX    TMP DP  RH WIND       PRES   REMARKS
FARMINGTON     CLOUDY    58  36  43 W14       30.07R
LOS ALAMOS     CLOUDY    50  37  62 N8        30.19R
SANTA FE       CLOUDY    48  42  80 CALM      30.13F
TAOS           CLOUDY    48  36  61 CALM      30.19R
ANGEL FIRE     CLOUDY    45  37  72 SW7       30.21R

$$
NMZ402-403-502-505>509-200500-
WESTCENTRAL MOUNTAINS/SOUTHWEST MOUNTAINS

CITY           SKY/WX    TMP DP  RH WIND       PRES   REMARKS
GALLUP         MOCLDY    47  39  74 SW5       30.18R
GRANTS         PTCLDY    49  37  63 W6        30.18R
SILVER CITY    CLOUDY    50  41  71 NW8       30.17R

$$
NMZ407-409-411-412-200500-
SOUTHERN DESERTS

CITY           SKY/WX    TMP DP  RH WIND       PRES   REMARKS
LORDSBURG      MOCLDY    54  48  82 CALM      30.11S
DEMING         MOCLDY    52  47  83 SW3       30.12R
LAS CRUCES     PTCLDY    53  45  73 E6        30.12R
HOLLOMAN AFB   MOCLDY    54  49  83 W6        30.10S
ALAMOGORDO     PTCLDY    50  46  87 CALM      30.11S
T OR C         CLOUDY    54  48  80 W7        30.12R

$$
NMZ519>523-200500-
CENTRAL VALLEYS/CENTRAL HIGHLANDS

CITY           SKY/WX    TMP DP  RH WIND       PRES   REMARKS
ALBUQUERQUE    CLOUDY    54  45  71 E6        30.12F
DOUBLE EAGLE   CLOUDY    49  44  82 S5        30.13F
MORIARTY ARPT  CLOUDY    49  43  80 NW9       30.16S
CLINES CORNERS CLOUDY    45  42  89 W7        30.15S
BELEN          FAIR      51  48  87 NE8       30.12S THUNDER
SOCORRO        CLOUDY    56  47  73 NW13G21   30.12R

$$
NMZ524>526-539-540-200500-
SOUTHCENTRAL MOUNTAINS

CITY           SKY/WX    TMP DP  RH WIND       PRES   REMARKS
RUIDOSO        MOCLDY    45  37  76 SW7       30.19F

$$
NMZ527>531-200500-
NORTHEAST HIGHLANDS/NORTHEAST PLAINS

CITY           SKY/WX    TMP DP  RH WIND       PRES   REMARKS
LAS VEGAS      MOCLDY    43  40  89 S14       30.12F
RATON          CLOUDY    50  43  77 SW6       30.09S
CLAYTON        CLOUDY    55  45  68 S17       30.06R

$$
NMZ532>537-200500-
EASTCENTRAL PLAINS

CITY           SKY/WX    TMP DP  RH WIND       PRES   REMARKS
TUCUMCARI      MOCLDY    55  50  83 S5        30.06S
CANNON AFB     CLOUDY    55  52  89 S9        30.11S
CLOVIS AIRPORT CLOUDY    54  48  82 SW7       30.14S

$$
NMZ028-029-538-200500-
SOUTHEAST PLAINS

CITY           SKY/WX    TMP DP  RH WIND       PRES   REMARKS
ROSWELL        MOCLDY    57  49  74 S8        30.09R
ARTESIA        CLEAR     54  50  87 S10       30.11R
CARLSBAD       MOCLDY    60  57  89 CALM      30.11R
HOBBS          CLOUDY    57  55  94 E7        30.12F


$$



USA.gov is the U.S. government's official web portal to all federal, state and local government web resources and services.